EFIV Weather Reports


Display with metric or nautical units.
time (UTC)temp
F
wind
direction
speed
MPH
gust
MPH
rain 1hr
in
rain 24hr
in
rain mn
in
humidity
%
barometer
mb
20260508012733 25 261 2.0 2.0 0.00 0.00 0.00 87 1020.5
20260508010734 25 224 2.0 4.0 0.00 0.00 0.00 87 1020.2
20260508004734 25 225 3.0 4.0 0.00 0.00 0.00 85 1019.9
20260508002733 25 242 3.0 4.0 0.00 0.00 0.00 86 1019.9
20260508000735 26 244 3.0 4.0 0.00 0.00 0.00 86 1019.7
20260507234734 26 189 1.0 2.0 0.00 0.00 0.00 84 1019.6
20260507232733 27 155 2.0 3.0 0.00 0.00 0.00 77 1019.3
20260507230733 27 282 2.0 3.0 0.00 0.00 0.00 80 1019.2
20260507224732 28 232 4.0 6.0 0.00 0.00 0.00 77 1019.0
20260507222733 28 234 3.0 4.0 0.00 0.00 0.00 76 1018.9
20260507220733 28 274 2.0 3.0 0.00 0.00 0.00 80 1018.7
20260507214732 29 81 1.0 1.0 0.00 0.00 0.00 77 1018.5
20260507212732 31 252 2.0 3.0 0.00 0.00 0.00 71 1018.3
20260507210732 29 281 2.0 3.0 0.00 0.00 0.00 74 1018.2
20260507204733 31 102 2.0 3.0 0.00 0.00 0.00 68 1018.0
20260507202732 34 93 3.0 4.0 0.00 0.00 0.00 59 1017.7
20260507194732 37 78 2.0 3.0 0.00 0.00 0.00 54 1017.1
20260507192732 37 21 4.0 5.0 0.00 0.00 0.00 53 1016.9
20260507190731 37 27 6.0 8.0 0.00 0.00 0.00 53 1016.7
20260507184732 39 30 6.0 9.0 0.00 0.00 0.00 49 1016.5
20260507182731 40 22 7.0 10.0 0.00 0.00 0.00 48 1016.3
20260507180730 41 22 9.0 13.0 0.00 0.00 0.00 46 1016.1
20260507174732 41 24 8.0 11.0 0.00 0.00 0.00 45 1016.0
20260507172731 42 21 9.0 11.0 0.00 0.00 0.00 45 1015.8
20260507171053 42 28 10.0 13.0 0.00 0.00 0.00 44 1015.7
20260507164732 42 21 9.0 13.0 0.00 0.00 0.00 44 1015.5
20260507162731 42 24 10.0 12.0 0.00 0.00 0.00 43 1015.4
20260507160732 42 38 9.0 12.0 0.00 0.00 0.00 43 1015.3
20260507154731 43 24 9.0 12.0 0.00 0.00 0.00 43 1015.1
20260507152730 42 30 9.0 12.0 0.00 0.00 0.00 44 1015.1
20260507150732 43 30 10.0 13.0 0.00 0.00 0.00 43 1014.9
20260507144732 43 341 5.0 10.0 0.00 0.00 0.00 42 1014.9
20260507140731 43 9 9.0 16.0 0.00 0.00 0.00 44 1014.6
20260507132730 44 23 7.0 11.0 0.00 0.00 0.00 44 1014.5
20260507130732 42 52 10.0 14.0 0.00 0.00 0.00 47 1014.5
20260507124730 43 17 13.0 17.0 0.00 0.00 0.00 46 1014.4
20260507122730 43 34 7.0 10.0 0.00 0.00 0.00 41 1014.4
20260507120731 43 347 7.0 14.0 0.00 0.00 0.00 43 1014.3
20260507114731 44 16 4.0 6.0 0.00 0.00 0.00 39 1014.1
20260507112729 42 36 9.0 15.0 0.00 0.00 0.00 41 1014.1
20260507110730 42 46 11.0 14.0 0.00 0.00 0.00 48 1014.0
20260507104729 43 308 6.0 9.0 0.00 0.00 0.00 39 1013.9
20260507102729 42 217 3.0 6.0 0.00 0.00 0.00 45 1014.0
20260507100729 41 333 6.0 11.0 0.00 0.00 0.00 46 1013.9
20260507094730 42 90 5.0 10.0 0.00 0.00 0.00 50 1013.7
20260507092730 40 50 9.0 12.0 0.00 0.00 0.00 59 1013.8
20260507090730 43 327 6.0 18.0 0.00 0.00 0.00 44 1013.6
20260507084729 40 316 5.0 9.0 0.00 0.00 0.00 51 1013.7
20260507082730 40 333 2.0 6.0 0.00 0.00 0.00 54 1013.7
20260507080729 42 37 6.0 9.0 0.00 0.00 0.00 52 1013.6
20260507074730 39 316 3.0 5.0 0.00 0.00 0.00 60 1013.7
20260507072729 39 101 3.0 5.0 0.00 0.00 0.00 60 1013.6
20260507070729 40 93 2.0 7.0 0.00 0.00 0.00 62 1013.4
20260507064729 38 346 2.0 3.0 0.00 0.00 0.00 70 1013.5
20260507062729 38 17 2.0 3.0 0.00 0.00 0.00 71 1013.5
20260507060729 37 354 4.0 7.0 0.00 0.00 0.00 72 1013.3
20260507054729 37 54 4.0 7.0 0.00 0.00 0.00 70 1013.2
20260507052729 37 169 2.0 3.0 0.00 0.00 0.00 72 1013.1
20260507050728 38 160 1.0 2.0 0.00 0.00 0.00 75 1013.0
20260507044729 35 227 1.0 2.0 0.00 0.00 0.00 84 1013.1
20260507042728 34 260 1.0 2.0 0.00 0.00 0.00 88 1013.0
20260507040730 33 230 1.0 2.0 0.00 0.00 0.00 92 1012.9
20260507034729 33 246 1.0 2.0 0.00 0.00 0.00 93 1012.8
20260507032729 33 166 1.0 3.0 0.00 0.00 0.00 93 1012.7
20260507030730 33 226 2.0 3.0 0.00 0.00 0.00 93 1012.6
20260507024728 32 286 3.0 4.0 0.00 0.00 0.00 94 1012.6
20260507022729 32 332 2.0 4.0 0.00 0.00 0.00 95 1012.4
20260507020729 32 142 1.0 2.0 0.00 0.00 0.00 95 1012.3
20260507014729 32 212 3.0 3.0 0.00 0.00 0.00 94 1012.2